Harrison, AR

8:43 AM CDT on April 24, 2018 (GMT -0500)
Boone County

Weather History for KHRO - June, 2013

Change the Weather History Date:

Monday, June 17, 2013

  Actual Average Record
Temperature  
Mean Temperature 73 °F 74 °F  
Max Temperature 80 °F 85 °F 100 °F (1936)
Min Temperature 65 °F 63 °F 46 °F (1917)
Degree Days  
Heating Degree Days 0 0  
Month to date heating degree days 5 3  
Since 1 June heating degree days 5 3  
Since 1 July heating degree days 3962 4001  
Cooling Degree Days 8 9  
Month to date cooling degree days 124 126  
Year to date cooling degree days 270 265  
Since 1 June cooling degree days 124 126  
Growing Degree Days 23 (Base 50)    
Moisture  
Dew Point 66 °F    
Average Humidity 79    
Maximum Humidity 100    
Minimum Humidity 58    
Precipitation  
Precipitation 0.18 in 0.14 in 3.52 in (1980)
Month to date precipitation 0.96 2.46  
Year to date precipitation 19.08 20.46  
Snow  
Snow 0.00 in 0.00 in - ()
Month to date snowfall 0.0 0.0  
Since 1 June snowfall 0.0 0.0  
Since 1 July snowfall 4.7 11.5  
Snow Depth 0.00 in    
Sea Level Pressure  
Sea Level Pressure 29.94 in    
Wind  
Wind Speed 4 mph (NW)    
Max Wind Speed 10 mph    
Max Gust Speed 18 mph    
Visibility 8 miles    
Events Rain    
T = Trace of Precipitation, MM = Missing Value Source: NWS Daily Summary

Daily Weather History Graph

Daily Weather History Graph

Search for Another Location

Airport or City:

Astronomy

Jun. 17, 2013 Rise Set
Actual Time 5:54 AM CDT 8:32 PM CDT
Civil Twilight 5:24 AM CDT 9:02 PM CDT
Nautical Twilight 4:46 AM CDT 9:40 PM CDT
Astronomical Twilight 4:04 AM CDT 10:22 PM CDT
Moon 2:20 PM CDT (6/17) 1:21 AM CDT (6/17)
Length of Visible Light 15h 38m
Length of Day
14h 37m
First Quarter, 60% of the Moon is Illuminated
Jun 17
First Quarter
Jun 23
Full
Jun 29
Last Quarter
Jul 8
New
Jul 15
First Quarter

Hourly Weather History & Observations

Time (CDT) Temp. Heat Index Dew Point Humidity Pressure Visibility Wind Dir Wind Speed Gust Speed Precip Events Conditions
12:53 AM 71.1 °F - 64.9 °F 81% 29.96 in 10.0 mi North - - N/A   Clear
1:53 AM 70.0 °F - 64.9 °F 84% 29.96 in 10.0 mi Calm Calm - N/A   Clear
2:53 AM 68.0 °F - 64.9 °F 90% 29.95 in 10.0 mi North - - N/A   Clear
3:23 AM 66.2 °F - 64.4 °F 94% 29.97 in 10.0 mi Calm Calm - N/A   Partly Cloudy
3:37 AM 66.2 °F - 64.4 °F 94% 29.97 in 7.0 mi Calm Calm - N/A   Mostly Cloudy
3:44 AM 66.2 °F - 64.4 °F 94% 29.98 in 5.0 mi WSW 3.5 mph - N/A   Overcast
3:53 AM 66.9 °F - 66.0 °F 97% 29.94 in 6.0 mi SW 3.5 mph - N/A   Overcast
4:15 AM 66.2 °F - 64.4 °F 94% 29.97 in 7.0 mi North - - N/A   Scattered Clouds
4:53 AM 66.0 °F - 64.9 °F 96% 29.91 in 10.0 mi North - - N/A   Clear
5:53 AM 66.0 °F - 64.9 °F 96% 29.90 in 10.0 mi Calm Calm - N/A   Clear
6:53 AM 66.9 °F - 64.9 °F 93% 29.89 in 10.0 mi SE 4.6 mph - N/A   Clear
7:53 AM 68.0 °F - 64.9 °F 90% 29.90 in 9.0 mi Calm Calm - N/A   Clear
8:53 AM 71.1 °F - 66.0 °F 84% 29.93 in 10.0 mi Calm Calm - N/A   Clear
9:53 AM 73.0 °F - 66.9 °F 81% 29.92 in 10.0 mi Calm Calm - N/A   Clear
10:53 AM 73.0 °F - 66.9 °F 81% 29.94 in 10.0 mi NNE 5.8 mph - N/A   Partly Cloudy
11:53 AM 71.1 °F - 66.9 °F 87% 29.97 in 10.0 mi Variable 4.6 mph - 0.00 in   Overcast
12:07 PM 69.8 °F - 68.0 °F 94% 30.00 in 2.0 mi NNW 3.5 mph - 0.04 in Rain Rain
12:16 PM 69.8 °F - 66.2 °F 88% 29.99 in 5.0 mi NW 4.6 mph - 0.06 in Rain Light Rain
12:53 PM 70.0 °F - 66.9 °F 90% 29.95 in 10.0 mi NE 5.8 mph - 0.07 in Rain Light Rain
1:53 PM 75.0 °F - 66.9 °F 76% 29.91 in 10.0 mi Variable 4.6 mph - 0.00 in   Partly Cloudy
2:53 PM 77.0 °F - 66.0 °F 69% 29.89 in 10.0 mi North 5.8 mph - N/A   Clear
3:53 PM 80.1 °F 81.9 °F 64.9 °F 60% 29.88 in 10.0 mi NE 5.8 mph - N/A   Mostly Cloudy
4:53 PM 78.1 °F - 64.0 °F 62% 29.88 in 10.0 mi ENE 4.6 mph - N/A   Overcast
5:53 PM 75.0 °F - 66.0 °F 73% 29.89 in 10.0 mi Calm Calm - N/A   Overcast
6:36 PM 69.8 °F - 69.8 °F 100% 29.93 in 7.0 mi West 4.6 mph - 0.01 in Rain Light Rain
6:45 PM 69.8 °F - 68.0 °F 94% 29.93 in 6.0 mi Variable 3.5 mph - 0.01 in Rain Light Rain
6:53 PM 70.0 °F - 68.0 °F 93% 29.90 in 6.0 mi West 11.5 mph - 0.01 in Rain Light Rain
7:11 PM 69.8 °F - 66.2 °F 88% 29.94 in 10.0 mi WNW 5.8 mph - 0.00 in   Overcast
7:53 PM 68.0 °F - 66.0 °F 93% 29.91 in 7.0 mi WNW 3.5 mph - 0.01 in Rain Light Rain
8:48 PM 68.0 °F - 66.2 °F 94% 29.95 in 2.5 mi Calm Calm - 0.07 in Rain Heavy Rain
8:53 PM 68.0 °F - 66.9 °F 96% 29.91 in 1.8 mi West 5.8 mph - 0.09 in Rain Rain
8:57 PM 68.0 °F - 66.2 °F 94% 29.95 in 3.0 mi West 4.6 mph - 0.00 in Rain Light Rain
9:26 PM 68.0 °F - 66.2 °F 94% 29.95 in 9.0 mi West 4.6 mph - 0.00 in   Overcast
9:53 PM 69.1 °F - 66.9 °F 93% 29.93 in 9.0 mi WNW 5.8 mph - 0.00 in   Overcast
10:24 PM 69.8 °F - 68.0 °F 94% 29.98 in 9.0 mi NNW 3.5 mph - 0.00 in   Overcast
10:45 PM 69.8 °F - 68.0 °F 94% 29.99 in 10.0 mi North - - 0.00 in   Overcast
10:53 PM 69.1 °F - 66.9 °F 93% 29.96 in 10.0 mi North - - 0.00 in   Overcast
11:00 PM 68.0 °F - 64.4 °F 88% 30.00 in 10.0 mi North - - N/A   Overcast
11:10 PM 66.2 °F - 64.4 °F 94% 30.00 in 10.0 mi North - - N/A   Overcast
11:13 PM 66.2 °F - 64.4 °F 94% 30.00 in 10.0 mi North - - N/A   Overcast
11:37 PM 66.2 °F - 64.4 °F 94% 29.99 in 10.0 mi North - - N/A   Overcast
11:53 PM 66.0 °F - 64.9 °F 96% 29.96 in 10.0 mi SSE 3.5 mph - N/A   Overcast